Regional Weather Roundup
Issued by NWS Green Bay, WI

Home | Current Version | Previous Version | Graphics & Text | Print | Product List | Glossary Off
Versions: 1 2 3 4 5 6 7 8 9 10 11 12 13 14 15 16 17 18 19 20 21 22 23 24 25 26 27 28 29 30 31 32 33 34 35 36 37 38 39 40 41 42 43 44 45 46 47 48 49 50

000
ASUS43 KGRB 252311
RWRGRB

NORTH-CENTRAL AND NORTHEAST WISCONSIN REGIONAL WEATHER ROUNDUP
NATIONAL WEATHER SERVICE GREEN BAY WI
600 PM CDT WED MAY 25 2016

WIZ005-009-010>012-018-019-260000-
NORTH CENTRAL WISCONSIN

CITY           SKY/WX    TMP DP  RH WIND       PRES   REMARKS
IRONWOOD       CLOUDY    73  52  46 E7        29.85R
MANITOWISH WTR NOT AVBL
ARBOR VITAE    LGT RAIN  64  61  89 NE5       29.90S
EAGLE RIVER    LGT RAIN  65  56  71 SE10      29.92R
LAND O LAKES   CLOUDY    71  56  58 SE8       29.94S
RHINELANDER    RAIN      65  60  84 E9        29.90F
PHILLIPS       RAIN      65  63  92 CALM      29.88R
ANTIGO         RAIN      63  62  97 E13       29.93F
TOMAHAWK       CLOUDY    64  61  91 E6        29.87F FOG
MERRILL        CLOUDY    65  64  94 E9        29.87F
$$

WIZ013-073-260000-
NORTHEAST WISCONSIN

CITY           SKY/WX    TMP DP  RH WIND       PRES   REMARKS
IRON MOUNTAIN  PTSUNNY   70  58  65 SE9       29.95S
MARINETTE      CLOUDY    59  55  87 E9        29.98S
OCONTO         CLOUDY    60  60 100 E8        29.96S
$$

WIZ017-030-035>037-045-260000-
CENTRAL WISCONSIN

CITY           SKY/WX    TMP DP  RH WIND       PRES   REMARKS
MEDFORD        LGT RAIN  64  64  99 E12G17    29.83F
WAUSAU         LGT RAIN  66  32  28 E13G22    29.85F
MOSINEE        CLOUDY    64  63  94 E13G18    29.87F
MARSHFIELD     CLOUDY    68  62  81 SE13      29.84S
WISC RAPIDS    CLOUDY    68  62  81 VRB3      29.86F
STEVENS POINT  CLOUDY    64  61  90 E16G24    29.86F
WAUPACA        HVY RAIN  67  67  98 NE7       29.90F
SHAWANO        TSTM      67  60  79 E8        29.95R
CLINTONVILLE   RAIN      64  59  82 E5        29.94R
WAUTOMA        NOT AVBL
$$

WIZ038-039-048-051-260000-
FOX VALLEY

CITY           SKY/WX    TMP DP  RH WIND       PRES   REMARKS
NWS GREEN BAY  CLOUDY    63  59  87 NE13      29.95R
APPLETON       LGT RAIN  66  57  72 E8        29.90F
OSHKOSH        LGT RAIN  64  58  80 E13       29.88F
FOND DU LAC    CLOUDY    68  63  84 SE9       29.88F
$$

WIZ022-050-052-260000-
EAST CENTRAL WISCONSIN

CITY           SKY/WX    TMP DP  RH WIND       PRES   REMARKS
EPHRAIM        FAIR      59  55  87 E9        29.96S
STURGEON BAY   NOT AVBL
MANITOWOC      CLOUDY    56  53  90 N6        29.95F
SHEBOYGAN      CLOUDY    54  50  86 NE12      29.93F
$$

LMZ563-521-522-541>543-260000-
LAKESHORE

STATION/POSITION TIME  TEMP    WIND        PRES    VSBY  WAVE
                       AIR SEA DIR/SP/G                  HT/PER
                 (UTC) (F)     (DEG/KT/KT) (MB)    (MI)  (FT/S)
SHEBOYGAN LKSHOR 2300   48     360/ 11/ 12 1014.2F
KEWAUNEE LKSHORE 2200           30/  7/ 10 1014.2F
ALGOMA MARINA    2247           50/ 13/ 16   N/A
NORTHPORT PIER   2200   55      90/  6/ 13 1014.9F
N MID LAKE BUOY  2250   49 45   50/ 10/ 10 1014.4F         1
SISTER BAY LKSHO 2220   63      70/ 11/ 22   N/A
CHAMBERS ISLAND  2200   59      40/ 12/ 17 1014.9F
MENOMINEE LKSHOR 2200           20/  6/  8 1013.8F
$$




USA.gov is the U.S. government's official web portal to all federal, state and local government web resources and services.